Regional Weather Roundup
Issued by NWS San Diego, CA

Home | Current Version | Previous Version | Text Only | Print | Product List | Glossary On
Versions: 1 2 3 4 5 6 7 8 9 10 11 12 13 14 15 16 17 18 19 20 21 22 23 24 25 26 27 28 29 30 31 32 33 34 35 36 37 38 39 40 41 42 43 44 45 46 47 48 49 50
616
ASUS46 KSGX 151411
RWRSGX

SAN DIEGO HOURLY WEATHER ROUNDUP
NATIONAL WEATHER SERVICE SAN DIEGO CA
600 AM PST FRI DEC 15 2017

NOTE: "FAIR" INDICATES FEW OR NO CLOUDS BELOW 12,000 FEET WITH NO
SIGNIFICANT WEATHER AND/OR OBSTRUCTIONS TO VISIBILITY.

CAZ042-043-060-061-PZZ750-775-151500-

GREATER SAN DIEGO AREA

CITY           SKY/WX    TMP DP  RH WIND       PRES   REMARKS
SAN DIEGO AP   CLEAR     56  27  32 E3        30.11R
NATIONAL CITY    N/A     46  29  51 CALM      30.12R
CHULA VISTA      N/A     46  28  48 E2        30.01R
IMPERIAL BEACH CLEAR     48  21  34 VRB6      30.11R
BROWN FIELD    CLEAR     54  18  24 NE5       30.10R
MIRAMAR MCAS   CLEAR     63   9  12 E14       30.09R
MONTGOMERY FLD CLEAR     58  13  17 NE5       30.10R
GILLESPIE FLD  FAIR      39  27  60 CALM      30.10R

$$

NORTH SAN DIEGO COUNTY

CITY           SKY/WX    TMP DP  RH WIND       PRES   REMARKS
CAMP PENDLETON CLEAR     35  19  52 CALM      30.10R
OCEANSIDE AP   NOT AVBL
OCEANSIDE HBR    N/A     55  28  35 CALM      30.12R
VISTA            N/A     51  18  26 CALM      30.08R
CARLSBAD       CLEAR     54  17  23 E5        30.09R
DEL MAR          N/A     58  23  26 CALM      30.11R
LA JOLLA SCRIP   N/A     69  16  13 N1        30.09R
FALLBROOK        N/A     60  14  16 CALM      30.12R
ESCONDIDO        N/A     46  24  42 CALM      30.13R
SAN MARCOS       N/A     61  14  16 CALM      30.13R
POWAY            N/A     51  18  26 CALM      30.14R

$$

EAST SAN DIEGO COUNTY

CITY           SKY/WX    TMP DP  RH WIND       PRES   REMARKS
RAMONA         CLEAR     43  12  28 CALM      30.13R
LA MESA          N/A     60  16  18 E1        30.04R
JAMUL            N/A     48  17  28 CALM      30.12R
MT. LAGUNA OBS   N/A     44   8  22 E33       30.08S

$$

ORANGE COUNTY AND THE LOS ANGELES BASIN

CITY           SKY/WX    TMP DP  RH WIND       PRES   REMARKS
JOHN WAYNE AP  CLEAR     49  37  63 CALM      30.10R
LAGUNA BEACH     N/A     44  22  42 CALM      30.05S
LAKE FOREST FR   N/A     63   1   8 E3        29.96S
HUNTINGTON BCH   N/A     44  37  76 SE1       30.11R
LOS ALAMITOS   FAIR      43  32  65 CALM      30.09R
FULLERTON      CLEAR     45  33  63 CALM      30.09S
LONG BEACH     CLEAR     51  25  36 NW5       30.10R
L.A. AP        CLEAR     59  21  23 NE5       30.11S
L.A. DOWNTOWN  CLEAR     57  18  21 N3        30.10S

$$

THE INLAND EMPIRE

CITY           SKY/WX    TMP DP  RH WIND       PRES   REMARKS
CORONA         CLEAR     57  15  19 E8        30.13S
CHINO          CLEAR     46  22  38 N5        30.14S
ONTARIO        PTCLDY    49  12  22 VRB5      30.13R
SAN BERNARDINO FAIR      43   7  22 SE6       30.15S
RIVERSIDE AP   CLEAR     50  16  25 NE5       30.14S
MORENO VALLEY    N/A     54  18  24 CALM      28.28R
MARCH ARB      CLEAR     40  11  30 NW3       30.15R
HORSETHIEF CYN   N/A     59   1   9 W6        30.14R
PERRIS           N/A     57  21  24 CALM      30.11R
HEMET EAST       N/A     58  -1   9 CALM      30.17S
FRENCH VALLEY  FAIR      45  10  24 NE6       30.15R
TEMECULA         N/A     44  26  48 CALM      30.20S

$$

SAN BERNARDINO AND RIVERSIDE COUNTY MOUNTAINS

CITY           SKY/WX    TMP DP  RH WIND       PRES   REMARKS
BIG BEAR AP    PTCLDY    21  -8  27 CALM      30.36S
ANGELUS OAKS     N/A     52  -1  11 CALM      30.11R

$$

SOUTHERN DESERT INCLUDING THE COACHELLA VALLEY

CITY           SKY/WX    TMP DP  RH WIND       PRES   REMARKS
PALM SPRINGS   CLEAR     58  15  18 VRB6      30.19R
THOUSAND PALMS   N/A     52  16  24 NW3       30.14R
PALM DESERT      N/A    N/A N/A N/A CALM        N/A
THERMAL        CLEAR     47  21  35 NW7       30.15R
BLYTHE         CLEAR     48  19  31 N3        30.20R
IMPERIAL AP    CLEAR     48  21  34 CALM      30.16R
EL CENTRO NAS  CLEAR     48  14  25 CALM      30.18R
YUMA AZ        CLEAR     58  20  22 N10       30.16R
MEXICALI       CLEAR     52  16  24 NW6       30.17

$$

UPPER DESERT

CITY           SKY/WX    TMP DP  RH WIND       PRES   REMARKS
HESPERIA         N/A     36  13  38 CALM      30.41S
APPLE VALLEY     N/A     22  14  70 CALM      30.36S
PALMDALE       PTCLDY    33  13  43 W6        30.27S WCI  28
LANCASTER      PTCLDY    26   6  42 CALM      30.28R
EDWARDS AFB    PTCLDY    22  -4  31 CALM      30.26R
DAGGETT        CLEAR     34  11  38 W6        30.26F WCI  29
29 PALMS N     CLEAR     41  10  28 NW9       30.31S
NEEDLES        CLEAR     56  19  23 N7        30.23S

$$

REGIONAL REPORTS

CITY           SKY/WX    TMP DP  RH WIND       PRES   REMARKS
SANTA BARBARA  CLEAR     37  28  70 CALM      30.11R
SANDBERG       CLEAR     55   6  14 E16       30.29
LAS VEGAS NV   CLEAR     41  15  35 SW8       30.28R
PHOENIX AZ     CLEAR     53  17  24 E8        30.17R
TIJUANA        CLEAR     50  18  27 CALM      30.11
ENSENADA NW      N/A     68  32  26 E14       30.01R

$$

OFFSHORE ISLANDS

CITY           SKY/WX    TMP DP  RH WIND       PRES   REMARKS
CATALINA ARPT  CLEAR     64  12  13 NE6       30.15R
SAN NICOLAS IS CLEAR     66  11  11 CALM      30.11R

$$

MARINE AND OFFSHORE BUOY REPORTS

STATION/POSITION SKY/WX   TEMP    WIND        PRES    VSBY  SWELL
                          AIR SEA DIR/SP/G                  HT/PER/DIR
                          (F)     (DEG/KT/KT) (MB)    (MI)  (FT/S/D)
TANNER BANKS               61 62              1018.6R
S CLEMENTE BASIN           63 64   60/  2/  4 1018.8R         5/280/16
SAN NICOLAS IS.               61                N/A           8/300/17
SO. S. ROSA ISLA           61 60  310/  6/  8 1018.9R         8/280/16
W. S. BARBARA CH           59 59  330/  4/  6 1019.2R         7/280/14
M. S. BARBARA CH           59 60   30/  4/  6 1020.2R         3/280/14
S. MONICA BASIN               61   CALM  /  2 1018.7R         3/260/17
S PEDRO CHANNEL               62                N/A           3/270/17
CMP PENDLETON NS              62                N/A           2/240/13
OCEANSIDE OFFSHR              63                N/A           2/240/13
TORREY PINES OTR              62                N/A           3/280/18
SAN DIEGO BAY                 64              1019.6R
POINT LOMA SOUTH              64                N/A           3/290/17

$$





USA.gov is the U.S. government's official web portal to all federal, state and local government web resources and services.